Location: Kings Park
(40.8862°N, 73.2573°W)
Time: 05:26:48
(UTC+00:00)

Cosmos 2263 Rocket - Pass Details

Date: 29 October 2020
Orbit: 822 x 850 km, 71.0° (Epoch: 29 November)

Event Time Altitude Azimuth Distance (km) Brightness Sun altitude
Rises 23:43:53 0° 344° (NNW) 3,420 5.6 -21.6°
Reaches altitude 10° 23:46:38 10° 355° (N) 2,483 4.7 -22.2°
Enters shadow 23:50:22 28° 32° (NNE) 1,536 3.3 -22.9°
